Vorticity
8 10 8 7 8 6 5 9 10 8 7 16 8 8 6 8 8 8 7 10 13 13 18 15 11 6 2 11 6 2 5 6 5 8 16 9 6 4 5 3 5 5 8
9 6 6 9 7 10 10 6 6 11 7 8 10 9 6 7 8 9 5 8 9 12 12 16 19 9 4 6 6 9 5 5 6 5 15 13 5 5 6 5 5 5 12
10 3 2 3 6 9 8 9 6 10 7 8 6 8 12 10 7 6 8 7 6 2 7 9 5 6 6 12 7 7 2 5 6 5 10 19 5 6 5 7 5 4 10
14 12 11 9 3 2 5 12 8 6 6 9 9 13 13 11 7 10 10 7 7 6 13 8 12 11 -0 26 5 7 6 5 6 4 8 16 9 7 7 5 7 4 5
12 13 11 9 12 14 2 6 6 17 9 1 6 47 63 5 7 10 14 13 9 6 6 15 8 12 22 3 1 17 8 3 5 4 6 13 11 6 7 4 5 6 6
14 9 15 13 8 16 17 7 5 26 -25 17 -30 69 2 4 11 4 2 5 15 13 8 7 15 8 14 -1 26 12 5 3 7 6 5 12 11 8 6 5 5 6 7
9 9 9 10 10 11 6 6 7 6 24 -18 -23 50 0 16 12 -16 10 54 -0 15 11 10 14 11 2 9 17 12 6 6 5 7 4 11 11 10 2 5 6 7 8
10 13 8 5 11 5 9 12 10 13 6 10 0 18 56 5 18 5 23 7 13 12 12 8 12 17 12 -5 11 -0 21 2 3 6 4 7 12 8 6 5 5 5 11
13 9 7 6 6 9 9 7 8 11 14 11 6 17 15 20 20 15 16 21 13 15 10 6 3 5 14 12 9 21 -12 34 6 4 9 5 9 10 8 6 7 3 6
7 9 11 5 12 8 11 12 11 9 8 12 14 11 31 38 2 11 16 15 13 16 12 11 6 14 14 12 22 30 34 24 21 0 6 3 11 11 7 6 8 5 3
9 13 10 8 6 8 9 8 9 8 12 14 9 10 -9 14 39 2 16 17 13 16 15 11 16 3 7 24 8 15 -2 16 17 9 6 6 6 7 13 6 5 7 6
11 12 10 9 8 7 8 9 9 9 9 9 5 7 4 1 61 -0 11 12 7 13 14 18 15 13 18 2 20 -1 11 8 21 29 6 6 2 11 6 8 4 6 6
20 11 9 9 8 8 8 6 6 5 4 0 7 6 11 -5 3 5 22 18 15 7 7 7 16 10 12 5 2 23 20 1 31 15 8 6 5 3 8 12 10 6 6
10 10 7 10 10 8 6 4 6 7 6 8 9 8 13 6 10 2 -4 8 18 10 4 7 6 10 4 8 19 3 3 7 34 13 5 6 6 6 5 8 7 7 6
5 7 7 7 6 5 4 5 7 8 8 9 9 10 12 8 3 17 9 -3 22 12 6 9 9 6 12 -2 17 4 13 12 4 31 1 5 6 8 5 7 8 10 9
11 8 7 5 4 5 6 8 11 12 11 9 8 9 9 3 -3 11 13 10 -5 50 7 5 5 9 10 8 6 17 21 13 18 16 30 3 6 6 7 7 8 9 8
8 6 5 6 5 7 7 9 12 11 13 10 9 8 9 7 7 4 15 18 16 49 23 2 9 8 6 8 14 13 -3 31 5 11 22 3 7 8 11 3 9 8 7
5 3 2 4 6 8 10 11 10 12 12 10 10 10 8 7 6 6 5 17 3 49 23 0 4 4 9 9 8 4 10 13 14 10 5 13 0 7 11 2 9 9 7
4 4 5 8 13 13 12 13 12 10 8 8 8 9 8 7 6 4 4 7 18 20 19 5 6 11 6 9 4 6 9 8 16 16 9 5 7 6 13 -1 9 7 7
7 7 10 17 10 9 9 10 7 7 8 13 16 17 9 6 7 7 7 6 17 10 13 2 -3 -7 15 15 28 22 11 5 26 27 10 15 1 31 -2 10 -3 11 10
10 18 13 9 10 11 13 16 19 20 21 18 17 15 12 17 16 15 11 10 11 13 2 15 21 1 20 2 11 21 16 6 10 18 19 19 10 8 -6 30 6 -0 5
17 8 10 13 15 18 20 21 22 20 9 8 23 17 18 15 12 11 11 12 12 14 9 10 1 9 -2 11 3 6 21 7 10 6 15 15 24 12 20 -10 16 17 -2
9 11 12 14 11 9 11 16 14 17 10 12 19 22 15 14 15 18 17 11 9 11 13 13 4 -3 14 5 6 20 33 15 7 13 7 8 11 18 11 16 4 14 26
14 14 12 11 11 13 11 7 12 13 9 16 15 14 14 13 17 6 20 20 16 10 10 12 11 6 5 16 3 31 32 7 4 9 8 10 8 8 10 18 8 9 12
10 11 11 11 10 11 13 12 10 10 9 15 17 16 1 17 18 17 3 9 22 16 10 12 12 9 7 2 9 7 23 12 7 7 6 0 17 4 8 2 11 15 18
21 20 18 16 15 13 12 15 11 13 12 10 15 17 18 9 10 12 15 8 1 19 18 11 11 14 12 9 4 2 2 11 11 16 15 8 -2 4 7 14 12 10 9
Height
5934 5932 5930 5929 5928 5927 5926 5924 5923 5921 5920 5919 5919 5919 5919 5920 5920 5921 5921 5922 5922 5923 5925 5928 5930 5933 5934 5935 5936 5937 5938 5938 5939 5939 5939 5940 5941 5941 5941 5941 5943 5943 5944
5932 5930 5929 5928 5926 5924 5922 5920 5919 5918 5917 5915 5913 5912 5913 5913 5915 5916 5916 5916 5917 5918 5919 5922 5924 5927 5929 5930 5932 5934 5935 5936 5937 5937 5937 5938 5939 5940 5941 5942 5943 5944 5944
5929 5927 5926 5925 5923 5921 5918 5915 5914 5914 5913 5912 5911 5910 5909 5908 5908 5908 5911 5910 5911 5913 5914 5916 5918 5921 5923 5924 5927 5929 5931 5933 5934 5934 5934 5936 5937 5938 5939 5941 5942 5943 5944
5927 5925 5923 5922 5922 5919 5916 5913 5913 5911 5908 5906 5905 5903 5903 5902 5900 5902 5903 5904 5904 5905 5908 5910 5912 5914 5916 5918 5920 5923 5926 5928 5930 5931 5932 5933 5935 5937 5937 5939 5940 5941 5943
5923 5921 5919 5918 5916 5915 5913 5910 5910 5904 5899 5899 5895 5891 5890 5896 5896 5896 5897 5898 5898 5899 5901 5903 5905 5907 5909 5911 5914 5918 5920 5923 5927 5928 5929 5930 5933 5935 5936 5937 5939 5940 5941
5921 5918 5916 5913 5911 5909 5908 5908 5905 5892 5885 5877 5892 5882 5879 5883 5885 5888 5890 5891 5890 5893 5895 5897 5898 5901 5902 5906 5908 5912 5914 5917 5922 5924 5926 5927 5929 5932 5933 5935 5936 5937 5939
5918 5915 5912 5909 5906 5903 5901 5901 5900 5895 5884 5858 5859 5858 5876 5879 5874 5877 5877 5874 5882 5884 5887 5891 5892 5894 5898 5900 5903 5907 5909 5911 5915 5919 5921 5923 5924 5927 5930 5932 5934 5935 5936
5913 5911 5909 5906 5902 5899 5896 5895 5894 5889 5885 5883 5874 5872 5868 5872 5874 5871 5870 5872 5873 5877 5881 5883 5886 5888 5891 5894 5897 5900 5903 5906 5909 5913 5916 5919 5920 5922 5925 5928 5930 5932 5933
5909 5906 5904 5901 5898 5895 5892 5892 5889 5885 5884 5880 5874 5874 5871 5867 5869 5865 5865 5865 5869 5871 5872 5876 5879 5881 5884 5887 5889 5892 5896 5898 5902 5906 5910 5913 5915 5917 5921 5924 5925 5927 5929
5902 5901 5899 5896 5893 5890 5886 5885 5885 5882 5880 5877 5875 5870 5867 5866 5861 5862 5864 5862 5863 5866 5869 5869 5871 5873 5876 5878 5881 5884 5888 5890 5894 5898 5902 5906 5909 5912 5915 5918 5921 5922 5924
5897 5895 5893 5890 5887 5885 5881 5879 5878 5877 5876 5873 5870 5867 5863 5860 5861 5859 5861 5858 5860 5859 5861 5864 5867 5869 5870 5871 5873 5877 5880 5883 5887 5891 5895 5899 5902 5905 5908 5912 5915 5918 5920
5890 5888 5886 5884 5881 5879 5876 5875 5872 5870 5869 5867 5865 5862 5860 5856 5852 5855 5854 5852 5854 5854 5854 5858 5859 5863 5866 5866 5865 5868 5872 5874 5876 5883 5888 5891 5894 5897 5901 5905 5908 5911 5914
5882 5880 5878 5876 5874 5873 5871 5869 5867 5865 5864 5862 5859 5857 5855 5852 5850 5848 5848 5847 5847 5847 5848 5850 5853 5855 5857 5859 5860 5860 5862 5866 5868 5874 5880 5884 5886 5891 5895 5898 5901 5904 5907
5871 5870 5870 5869 5867 5865 5864 5863 5860 5858 5856 5854 5852 5849 5848 5846 5842 5841 5841 5840 5838 5837 5838 5840 5842 5846 5848 5849 5851 5853 5856 5856 5858 5864 5870 5874 5880 5884 5886 5890 5892 5896 5898
5861 5860 5860 5860 5858 5857 5856 5854 5852 5849 5847 5846 5843 5840 5838 5836 5834 5833 5833 5832 5831 5830 5828 5832 5835 5836 5838 5840 5842 5846 5848 5850 5852 5855 5860 5864 5870 5875 5879 5882 5885 5888 5890
5852 5850 5849 5849 5848 5846 5844 5843 5841 5840 5837 5834 5832 5831 5829 5828 5826 5823 5823 5823 5821 5818 5821 5821 5826 5828 5828 5830 5834 5835 5838 5841 5843 5845 5847 5854 5860 5866 5870 5874 5878 5881 5881
5840 5839 5837 5836 5835 5835 5832 5831 5830 5828 5827 5824 5821 5821 5819 5818 5816 5814 5813 5812 5809 5806 5810 5812 5813 5816 5818 5819 5822 5825 5828 5829 5832 5835 5837 5843 5848 5854 5859 5863 5868 5872 5874
5827 5825 5824 5823 5821 5821 5819 5817 5815 5815 5814 5811 5810 5809 5807 5807 5806 5804 5803 5803 5800 5796 5800 5803 5805 5807 5809 5811 5812 5814 5818 5821 5824 5826 5827 5831 5836 5842 5846 5852 5857 5861 5863
5814 5812 5811 5808 5806 5804 5803 5802 5800 5798 5798 5798 5796 5796 5795 5794 5793 5793 5792 5793 5793 5790 5792 5794 5795 5796 5797 5800 5802 5803 5804 5808 5811 5814 5817 5819 5824 5829 5834 5840 5844 5849 5851
5800 5797 5795 5793 5789 5787 5785 5785 5784 5782 5781 5781 5780 5779 5779 5780 5780 5780 5780 5781 5783 5783 5783 5784 5786 5787 5788 5789 5789 5791 5794 5796 5798 5802 5805 5808 5810 5815 5821 5826 5831 5835 5839
5785 5782 5778 5776 5773 5770 5767 5766 5765 5765 5763 5763 5763 5761 5761 5763 5765 5766 5767 5767 5769 5771 5771 5772 5773 5776 5777 5778 5777 5778 5781 5784 5788 5791 5792 5795 5798 5801 5804 5809 5813 5820 5825
5767 5765 5761 5758 5755 5753 5751 5748 5748 5747 5747 5746 5746 5745 5743 5745 5747 5749 5751 5752 5752 5755 5757 5760 5761 5763 5764 5765 5764 5764 5767 5771 5775 5778 5779 5781 5784 5786 5790 5796 5800 5804 5808
5750 5747 5745 5743 5740 5738 5736 5734 5732 5731 5731 5730 5729 5729 5727 5728 5730 5732 5734 5736 5738 5739 5742 5745 5747 5749 5750 5752 5750 5750 5752 5756 5758 5762 5765 5768 5770 5773 5776 5782 5785 5788 5791
5732 5729 5727 5725 5723 5721 5719 5718 5716 5715 5715 5714 5714 5713 5712 5711 5713 5715 5717 5719 5722 5724 5726 5729 5732 5734 5736 5737 5737 5736 5738 5740 5744 5749 5750 5753 5757 5760 5763 5766 5770 5774 5777
5714 5711 5709 5707 5705 5703 5702 5701 5700 5699 5698 5698 5698 5698 5698 5697 5696 5699 5701 5703 5705 5708 5711 5714 5716 5718 5721 5722 5723 5723 5726 5727 5730 5733 5736 5738 5741 5744 5747 5751 5754 5757 5761
5694 5691 5689 5686 5685 5684 5683 5683 5681 5680 5680 5680 5680 5680 5680 5681 5681 5682 5684 5687 5689 5691 5694 5698 5701 5703 5705 5707 5709 5710 5711 5713 5715 5716 5719 5723 5728 5730 5732 5736 5739 5742 5745